| time (UTC) | temp F | wind direction | speed knots | gust knots | rain 1hr in | rain 24hr in | rain mn in | humidity % | barometer mb |
| 20260902143351 | 85 | 153 | 5.2 | 11.3 | 0.00 | 0.00 | 0.00 | 46 | 1022.4 |
| 20260902142359 | 85 | 124 | 5.2 | 10.4 | 0.00 | 0.00 | 0.00 | 45 | 1022.5 |
| 20260902141354 | 85 | 119 | 5.2 | 11.3 | 0.00 | 0.00 | 0.00 | 44 | 1022.5 |
| 20260902140354 | 85 | 156 | 3.5 | 9.6 | 0.00 | 0.00 | 0.00 | 45 | 1022.7 |
| 20260902135347 | 85 | 128 | 8.7 | 12.2 | 0.00 | 0.00 | 0.00 | 45 | 1022.5 |
| 20260902134347 | 86 | 123 | 5.2 | 13.0 | 0.00 | 0.00 | 0.00 | 44 | 1022.7 |
| 20260902133343 | 85 | 201 | 4.3 | 13.0 | 0.00 | 0.00 | 0.00 | 44 | 1022.7 |
| 20260902132358 | 85 | 95 | 5.2 | 12.2 | 0.00 | 0.00 | 0.00 | 43 | 1022.8 |
| 20260902131340 | 85 | 118 | 8.7 | 13.9 | 0.00 | 0.00 | 0.00 | 43 | 1023.0 |
| 20260902130401 | 85 | 122 | 7.8 | 13.0 | 0.00 | 0.00 | 0.00 | 42 | 1022.9 |
| 20260902125347 | 85 | 128 | 6.1 | 14.8 | 0.00 | 0.00 | 0.00 | 42 | 1022.8 |
| 20260902124401 | 87 | 127 | 6.1 | 10.4 | 0.00 | 0.00 | 0.00 | 41 | 1022.8 |
| 20260902123353 | 86 | 165 | 3.5 | 11.3 | 0.00 | 0.00 | 0.00 | 41 | 1022.7 |
| 20260902122344 | 86 | 202 | 3.5 | 14.8 | 0.00 | 0.00 | 0.00 | 42 | 1022.7 |
| 20260902121339 | 86 | 238 | 3.5 | 10.4 | 0.00 | 0.00 | 0.00 | 40 | 1022.7 |
| 20260902120401 | 86 | 236 | 5.2 | 13.0 | 0.00 | 0.00 | 0.00 | 40 | 1022.6 |
| 20260902115355 | 86 | 137 | 4.3 | 14.8 | 0.00 | 0.00 | 0.00 | 39 | 1022.7 |
| 20260902114349 | 87 | 133 | 7.8 | 13.0 | 0.00 | 0.00 | 0.00 | 38 | 1022.7 |
| 20260902113349 | 87 | 158 | 7.0 | 14.8 | 0.00 | 0.00 | 0.00 | 38 | 1022.6 |
| 20260902112401 | 87 | 167 | 5.2 | 13.0 | 0.00 | 0.00 | 0.00 | 38 | 1022.6 |
| 20260902111340 | 88 | 225 | 2.6 | 11.3 | 0.00 | 0.00 | 0.00 | 38 | 1022.6 |
| 20260902110400 | 88 | 163 | 6.1 | 11.3 | 0.00 | 0.00 | 0.00 | 37 | 1022.6 |
| 20260902105351 | 88 | 250 | 3.5 | 10.4 | 0.00 | 0.00 | 0.00 | 37 | 1022.5 |
| 20260902104347 | 87 | 128 | 4.3 | 11.3 | 0.00 | 0.00 | 0.00 | 37 | 1022.6 |
| 20260902103349 | 88 | 125 | 6.1 | 12.2 | 0.00 | 0.00 | 0.00 | 36 | 1022.6 |
| 20260902102342 | 89 | 96 | 2.6 | 8.7 | 0.00 | 0.00 | 0.00 | 36 | 1022.5 |
| 20260902101342 | 89 | 49 | 0.9 | 2.6 | 0.00 | 0.00 | 0.00 | 38 | 1022.6 |
| 20260902100401 | 88 | 49 | 1.7 | 4.3 | 0.00 | 0.00 | 0.00 | 39 | 1022.4 |
| 20260902095355 | 87 | 17 | 0.0 | 3.5 | 0.00 | 0.00 | 0.00 | 43 | 1022.5 |
| 20260902094355 | 86 | 306 | 1.7 | 3.5 | 0.00 | 0.00 | 0.00 | 46 | 1022.5 |
| 20260902093349 | 85 | 302 | 0.0 | 3.5 | 0.00 | 0.00 | 0.00 | 50 | 1022.6 |
| 20260902092342 | 84 | 303 | 2.6 | 4.3 | 0.00 | 0.00 | 0.00 | 51 | 1022.5 |
| 20260902091347 | 82 | 339 | 1.7 | 3.5 | 0.00 | 0.00 | 0.00 | 52 | 1022.5 |
| 20260902090345 | 82 | 340 | 1.7 | 3.5 | 0.00 | 0.00 | 0.00 | 55 | 1022.4 |
| 20260902085357 | 80 | 340 | 0.9 | 4.3 | 0.00 | 0.00 | 0.00 | 58 | 1022.4 |
| 20260902084357 | 80 | 340 | 0.0 | 4.3 | 0.00 | 0.00 | 0.00 | 59 | 1022.3 |
| 20260902083341 | 79 | 30 | 1.7 | 2.6 | 0.00 | 0.00 | 0.00 | 61 | 1022.4 |
| 20260902082339 | 78 | 31 | 0.0 | 2.6 | 0.00 | 0.00 | 0.00 | 63 | 1022.2 |
| 20260902081339 | 78 | 31 | 1.7 | 3.5 | 0.00 | 0.00 | 0.00 | 63 | 1022.3 |
| 20260902080345 | 77 | 35 | 0.9 | 1.7 | 0.00 | 0.00 | 0.00 | 65 | 1022.2 |
| 20260902075343 | 77 | 35 | 1.7 | 2.6 | 0.00 | 0.00 | 0.00 | 66 | 1022.1 |
| 20260902074345 | 76 | 37 | 1.7 | 3.5 | 0.00 | 0.00 | 0.00 | 67 | 1022.1 |
| 20260902073349 | 75 | 46 | 0.0 | 3.5 | 0.00 | 0.00 | 0.00 | 69 | 1022.2 |
| 20260902072341 | 75 | 41 | 2.6 | 3.5 | 0.00 | 0.00 | 0.00 | 70 | 1022.2 |
| 20260902071401 | 74 | 38 | 0.9 | 3.5 | 0.00 | 0.00 | 0.00 | 72 | 1022.1 |
| 20260902070338 | 74 | 38 | 1.7 | 2.6 | 0.00 | 0.00 | 0.00 | 72 | 1022.0 |
| 20260902065357 | 74 | 38 | 0.0 | 1.7 | 0.00 | 0.00 | 0.00 | 73 | 1021.9 |
| 20260902064359 | 74 | 38 | 0.0 | 1.7 | 0.00 | 0.00 | 0.00 | 74 | 1021.8 |
| 20260902063359 | 73 | 38 | 0.0 | 0.9 | 0.00 | 0.00 | 0.00 | 76 | 1021.8 |
| 20260902062354 | 72 | 38 | 0.0 | 0.0 | 0.00 | 0.00 | 0.00 | 77 | 1021.6 |
| 20260902060337 | 71 | 38 | 0.0 | 0.9 | 0.00 | 0.00 | 0.00 | 79 | 1021.5 |
| 20260902055339 | 71 | 38 | 0.0 | 0.9 | 0.00 | 0.00 | 0.00 | 79 | 1021.3 |
| 20260902054347 | 70 | 38 | 0.0 | 1.7 | 0.00 | 0.00 | 0.00 | 79 | 1021.3 |
| 20260902053350 | 70 | 38 | 0.0 | 0.9 | 0.00 | 0.00 | 0.00 | 79 | 1021.3 |
| 20260902052343 | 70 | 38 | 0.0 | 0.9 | 0.00 | 0.00 | 0.00 | 79 | 1021.3 |
| 20260902051347 | 70 | 38 | 0.9 | 1.7 | 0.00 | 0.00 | 0.00 | 79 | 1021.1 |
| 20260902050348 | 70 | 38 | 0.0 | 0.9 | 0.00 | 0.00 | 0.00 | 78 | 1021.0 |
| 20260902045340 | 70 | 38 | 0.0 | 1.7 | 0.00 | 0.00 | 0.00 | 79 | 1021.1 |
| 20260902044359 | 70 | 38 | 0.9 | 2.6 | 0.00 | 0.00 | 0.00 | 78 | 1021.0 |
| 20260902043356 | 71 | 38 | 1.7 | 2.6 | 0.00 | 0.00 | 0.00 | 78 | 1020.9 |
| 20260902042356 | 71 | 38 | 0.0 | 1.7 | 0.00 | 0.00 | 0.00 | 78 | 1021.0 |
| 20260902041354 | 71 | 38 | 1.7 | 2.6 | 0.00 | 0.00 | 0.00 | 77 | 1021.1 |
| 20260902040339 | 71 | 38 | 1.7 | 2.6 | 0.00 | 0.00 | 0.00 | 77 | 1021.2 |
| 20260902035349 | 71 | 38 | 0.0 | 1.7 | 0.00 | 0.00 | 0.00 | 77 | 1021.2 |
| 20260902034347 | 71 | 39 | 0.9 | 3.5 | 0.00 | 0.00 | 0.00 | 77 | 1021.1 |
| 20260902033345 | 71 | 38 | 2.6 | 3.5 | 0.00 | 0.00 | 0.00 | 77 | 1021.3 |
| 20260902032343 | 71 | 39 | 0.0 | 2.6 | 0.00 | 0.00 | 0.00 | 77 | 1021.2 |
| 20260902031341 | 71 | 40 | 0.0 | 1.7 | 0.00 | 0.00 | 0.00 | 77 | 1021.2 |
| 20260902030346 | 72 | 40 | 0.0 | 2.6 | 0.00 | 0.00 | 0.00 | 76 | 1021.2 |
| 20260902025358 | 72 | 40 | 0.9 | 3.5 | 0.00 | 0.00 | 0.00 | 76 | 1021.2 |
| 20260902024358 | 72 | 39 | 0.9 | 3.5 | 0.00 | 0.00 | 0.00 | 76 | 1021.4 |
| 20260902023358 | 72 | 41 | 1.7 | 3.5 | 0.00 | 0.00 | 0.00 | 75 | 1021.5 |
| 20260902022358 | 72 | 42 | 0.9 | 3.5 | 0.00 | 0.00 | 0.00 | 75 | 1021.4 |
| 20260902021357 | 72 | 42 | 0.9 | 3.5 | 0.00 | 0.00 | 0.00 | 74 | 1021.4 |
| 20260902015359 | 72 | 42 | 1.7 | 2.6 | 0.00 | 0.00 | 0.00 | 74 | 1021.3 |
| 20260902014341 | 72 | 42 | 1.7 | 2.6 | 0.00 | 0.00 | 0.00 | 74 | 1021.5 |
| 20260902013400 | 72 | 42 | 0.0 | 2.6 | 0.00 | 0.00 | 0.00 | 74 | 1021.7 |
| 20260902012355 | 73 | 42 | 0.9 | 3.5 | 0.00 | 0.00 | 0.00 | 73 | 1021.7 |
| 20260902011356 | 73 | 42 | 0.9 | 4.3 | 0.00 | 0.00 | 0.00 | 73 | 1021.8 |
| 20260902010337 | 73 | 43 | 1.7 | 2.6 | 0.00 | 0.00 | 0.00 | 73 | 1021.8 |
| 20260902005351 | 73 | 43 | 2.6 | 3.5 | 0.00 | 0.00 | 0.00 | 73 | 1022.0 |
| 20260902004357 | 73 | 43 | 0.9 | 3.5 | 0.00 | 0.00 | 0.00 | 72 | 1021.9 |
| 20260902003357 | 74 | 44 | 1.7 | 3.5 | 0.00 | 0.00 | 0.00 | 71 | 1021.9 |
| 20260902002355 | 74 | 147 | 1.7 | 2.6 | 0.00 | 0.00 | 0.00 | 70 | 1022.0 |
| 20260902001341 | 74 | 152 | 0.9 | 1.7 | 0.00 | 0.00 | 0.00 | 70 | 1022.0 |
| 20260902000340 | 74 | 152 | 0.9 | 3.5 | 0.00 | 0.00 | 0.00 | 70 | 1022.0 |
| 20260901235339 | 74 | 155 | 0.0 | 0.0 | 0.00 | 0.00 | 0.00 | 70 | 1021.8 |
| 20260901234339 | 75 | 155 | 0.0 | 0.0 | 0.00 | 0.00 | 0.00 | 69 | 1021.8 |
| 20260901233349 | 75 | 155 | 0.0 | 0.0 | 0.00 | 0.00 | 0.00 | 69 | 1021.8 |
| 20260901232359 | 75 | 155 | 0.0 | 0.0 | 0.00 | 0.00 | 0.00 | 69 | 1021.9 |
| 20260901231339 | 75 | 155 | 0.0 | 0.0 | 0.00 | 0.00 | 0.00 | 68 | 1021.9 |
| 20260901230345 | 75 | 155 | 0.0 | 0.0 | 0.00 | 0.00 | 0.00 | 68 | 1021.8 |
| 20260901225357 | 75 | 155 | 0.0 | 0.0 | 0.00 | 0.00 | 0.00 | 68 | 1021.6 |
| 20260901224358 | 75 | 155 | 0.0 | 0.0 | 0.00 | 0.00 | 0.00 | 68 | 1021.5 |
| 20260901223339 | 76 | 155 | 0.0 | 1.7 | 0.00 | 0.00 | 0.00 | 67 | 1021.4 |
| 20260901222340 | 76 | 155 | 0.9 | 1.7 | 0.00 | 0.00 | 0.00 | 66 | 1021.5 |
| 20260901221341 | 76 | 156 | 0.0 | 0.9 | 0.00 | 0.00 | 0.00 | 66 | 1021.4 |
| 20260901220346 | 76 | 156 | 0.0 | 0.9 | 0.00 | 0.00 | 0.00 | 65 | 1021.3 |
| 20260901215340 | 76 | 156 | 0.0 | 0.9 | 0.00 | 0.00 | 0.00 | 66 | 1021.3 |
| 20260901214343 | 76 | 156 | 0.0 | 0.9 | 0.00 | 0.00 | 0.00 | 65 | 1021.1 |
| 20260901213343 | 76 | 156 | 0.0 | 0.9 | 0.00 | 0.00 | 0.00 | 65 | 1021.0 |
| 20260901212341 | 76 | 156 | 0.0 | 0.9 | 0.00 | 0.00 | 0.00 | 65 | 1020.9 |
| 20260901211345 | 77 | 156 | 1.7 | 2.6 | 0.00 | 0.00 | 0.00 | 65 | 1020.9 |
| 20260901210345 | 77 | 156 | 0.0 | 2.6 | 0.00 | 0.00 | 0.00 | 64 | 1020.7 |
| 20260901205355 | 77 | 156 | 0.0 | 1.7 | 0.00 | 0.00 | 0.00 | 64 | 1020.8 |
| 20260901204357 | 77 | 156 | 0.9 | 2.6 | 0.00 | 0.00 | 0.00 | 64 | 1020.8 |
| 20260901203339 | 78 | 158 | 0.9 | 3.5 | 0.00 | 0.00 | 0.00 | 63 | 1020.6 |
| 20260901202356 | 78 | 220 | 0.9 | 3.5 | 0.00 | 0.00 | 0.00 | 61 | 1020.6 |
| 20260901201339 | 79 | 221 | 0.9 | 2.6 | 0.00 | 0.00 | 0.00 | 60 | 1020.4 |
| 20260901200345 | 79 | 221 | 0.9 | 1.7 | 0.00 | 0.00 | 0.00 | 60 | 1020.5 |
| 20260901195344 | 79 | 221 | 0.9 | 2.6 | 0.00 | 0.00 | 0.00 | 60 | 1020.5 |
| 20260901194345 | 79 | 221 | 0.9 | 3.5 | 0.00 | 0.00 | 0.00 | 60 | 1020.3 |
| 20260901193345 | 80 | 221 | 1.7 | 2.6 | 0.00 | 0.00 | 0.00 | 59 | 1020.2 |
| 20260901192338 | 80 | 221 | 0.9 | 3.5 | 0.00 | 0.00 | 0.00 | 59 | 1020.2 |
| 20260901191338 | 80 | 224 | 0.9 | 2.6 | 0.00 | 0.00 | 0.00 | 58 | 1020.1 |
| 20260901190341 | 80 | 224 | 1.7 | 3.5 | 0.00 | 0.00 | 0.00 | 58 | 1019.8 |
| 20260901185340 | 80 | 224 | 2.6 | 4.3 | 0.00 | 0.00 | 0.00 | 57 | 1019.7 |
| 20260901184344 | 81 | 235 | 1.7 | 4.3 | 0.00 | 0.00 | 0.00 | 57 | 1019.7 |
| 20260901183346 | 81 | 235 | 1.7 | 2.6 | 0.00 | 0.00 | 0.00 | 56 | 1019.5 |
| 20260901182345 | 81 | 235 | 1.7 | 2.6 | 0.00 | 0.00 | 0.00 | 56 | 1019.4 |
| 20260901181347 | 81 | 235 | 0.9 | 4.3 | 0.00 | 0.00 | 0.00 | 56 | 1019.5 |
| 20260901180347 | 81 | 232 | 2.6 | 4.3 | 0.00 | 0.00 | 0.00 | 55 | 1019.9 |
| 20260901175400 | 82 | 231 | 2.6 | 6.1 | 0.00 | 0.00 | 0.00 | 55 | 1020.0 |
| 20260901174358 | 82 | 238 | 0.9 | 5.2 | 0.00 | 0.00 | 0.00 | 55 | 1020.2 |
| 20260901173354 | 82 | 243 | 3.5 | 7.0 | 0.00 | 0.00 | 0.00 | 55 | 1020.1 |
| 20260901172341 | 81 | 204 | 2.6 | 7.8 | 0.00 | 0.00 | 0.00 | 56 | 1020.4 |
| 20260901171359 | 81 | 231 | 3.5 | 9.6 | 0.00 | 0.00 | 0.00 | 55 | 1020.3 |
| 20260901170401 | 82 | 236 | 4.3 | 7.0 | 0.00 | 0.00 | 0.00 | 56 | 1020.5 |
| 20260901165352 | 82 | 233 | 2.6 | 7.0 | 0.00 | 0.00 | 0.00 | 58 | 1020.3 |
| 20260901164352 | 82 | 185 | 2.6 | 6.1 | 0.00 | 0.00 | 0.00 | 57 | 1020.4 |
| 20260901163352 | 82 | 208 | 2.6 | 7.8 | 0.00 | 0.00 | 0.00 | 58 | 1020.5 |
| 20260901162343 | 82 | 199 | 3.5 | 7.8 | 0.00 | 0.00 | 0.00 | 57 | 1020.8 |
| 20260901161341 | 83 | 222 | 3.5 | 7.8 | 0.00 | 0.00 | 0.00 | 56 | 1020.6 |
| 20260901160354 | 83 | 254 | 2.6 | 6.1 | 0.00 | 0.00 | 0.00 | 55 | 1020.6 |
| 20260901155348 | 83 | 270 | 2.6 | 10.4 | 0.00 | 0.00 | 0.00 | 55 | 1020.6 |
| 20260901154343 | 83 | 213 | 4.3 | 10.4 | 0.00 | 0.00 | 0.00 | 56 | 1020.7 |
| 20260901153341 | 82 | 202 | 2.6 | 8.7 | 0.00 | 0.00 | 0.00 | 58 | 1020.8 |
| 20260901152341 | 82 | 226 | 3.5 | 7.8 | 0.00 | 0.00 | 0.00 | 60 | 1020.6 |
| 20260901151400 | 82 | 220 | 6.1 | 10.4 | 0.00 | 0.00 | 0.00 | 61 | 1020.8 |
| 20260901150352 | 82 | 229 | 6.1 | 11.3 | 0.00 | 0.00 | 0.00 | 61 | 1020.9 |
| 20260901145403 | 82 | 214 | 4.3 | 9.6 | 0.00 | 0.00 | 0.00 | 60 | 1021.1 |
| 20260901144355 | 83 | 127 | 3.5 | 9.6 | 0.00 | 0.00 | 0.00 | 58 | 1020.9 |